Showing default

CELESTIS 17/SHERPA-FX1, 47486

Orbit data source: Space-Track

CELESTIS 17/SHERPA-FX1, 47486 is a payload satellite owned by Spaceflight Ind (US) in SSO that was launched on Sun, 24 Jan 2021 UTC via an FALCON 9 launch vehicle from the Air Force Eastern Test Range (AFETR). Payload-class satellites include a variety of spacecraft equipped with specific instruments for various scientific and technological missions. These include communications satellites like Starlink; space stations such as the ISS; scientific satellites like the Hubble; Earth observation satellites from companies like Planet Labs, Umbra, and HawkEye 360; GPS; miniature CubeSats for education and research; and military/defense satellites.

Loading next visibility...
Identifier
47486, 2021-006CB
Orbit
SSO
Country
Flag of USUS
Related business
Manufacturer
Spaceflight Ind
Mission
Operational Commercial Technology
Bus & Motor
ESPA/SHERPA-FX, Unknown motor
Mass
130 kg wet, 130 kg dry
Launch date (UTC)
2021-01-24 (6 years ago)
Launch vehicle
FALCON 9
Launch site
Air Force Eastern Test Range (AFETR)
Object type
Payload
Rocket body
Debris
Shape & HBR
Cyl, 0.4 m
Radar Cross Section
0.503 m², Large (>1 m²)

Expand to show TLE details & history
Last TLE update: 12 hours ago

TLE from 12 hours ago
0 CELESTIS 17/SHERPA-FX1
1 47486U 21006CB  26255.04890101  .00003900  00000-0  12484-3 0  9995
2 47486  97.2181 294.0454 0004775 237.8139 122.2641 15.32968303312603
Epoch: 2026-09-12T01:10Z
TLE epoch observation values (Epoch: 2026-09-12T01:10:25.047Z)
Latitude
-0°
Longitude
-74.62245°
Altitude
471.821 km
Speed
7.629 km/s
True Right ascension
19h 36m 10s
True Declination
0° 00' 00"
Sunlit
Object was in full shadow at epoch
Visualization orbit readout
Latitude
Unknown
Longitude
Unknown
Altitude
Unknown
Speed
Unknown
Apparent Right ascension
Unknown
Apparent Declination
Unknown
Sunlit
N/A
Visualization observer readout
Local Sidereal Time
06:06:08
Azimuth
Unknown
Elevation
Unknown
Doppler factor
Unknown
Orbital elements
Apogee altitude
467.17 km
Perigee altitude
460.635 km
Semi-major axis
6,842.039 km
Eccentricity
0.00048
Inclination
97.2181°
RAAN
294.0454°
Arg. of periapsis
237.8139°
True anomaly
122.31035°
Mean anomaly
122.2641°
Eccentric anomaly
122.28723°
Mean motion
3.835 °/min
Orbital period
93.87 mins
BSTAR
0.00012484
Loading maneuver chart data...
Computing Atmospheric mass density...
Loading historical data...
Loading historical data...
Loading historical data...
Loading historical data...
Loading historical data...
Loading historical data...
Loading historical data...

Documentation

Showing up to 5 results
|